Mineral Point, WI

5:48 PM CDT on May 26, 2017 (GMT -0500)
Iowa County

Weather History for KMRJ - January, 2014

Change the Weather History Date:

Friday, January 10, 2014

  Actual Average (KLNR) Record (KLNR)
Temperature  
Mean Temperature 29 °F -  
Max Temperature 35 °F 24 °F 52 °F (2012)
Min Temperature 23 °F 11 °F -11 °F (2015)
Degree Days  
Heating Degree Days 36    
Moisture  
Dew Point 30 °F    
Average Humidity 94    
Maximum Humidity 100    
Minimum Humidity 86    
Precipitation  
Precipitation 0.05 in - - ()
Sea Level Pressure  
Sea Level Pressure 29.74 in    
Wind  
Wind Speed 7 mph (SSE)    
Max Wind Speed 12 mph    
Max Gust Speed -    
Averages and records for this station are not official NWS values.
T = Trace of Precipitation, MM = Missing Value Source: NWS Daily Summary

Daily Weather History Graph

Daily Weather History Graph

Search for Another Location

Airport or City:

Trip Planner

Search our weather history database for the weather conditions in past years. The results will help you decide how hot, cold, wet, or windy it might be!

Date:

Astronomy

Jan. 10, 2014 Rise Set
Actual Time 7:30 AM CST 4:46 PM CST
Civil Twilight 6:59 AM CST 5:18 PM CST
Nautical Twilight 6:24 AM CST 5:53 PM CST
Astronomical Twilight 5:49 AM CST 6:27 PM CST
Moon 12:52 PM CST (1/10) 2:36 AM CST (1/10)
Length of Visible Light 10h 18m
Length of Day
9h 15m
Waxing Gibbous, 75% of the Moon is Illuminated
Jan 10
Waxing Gibbous
Jan 15
Full
Jan 23
Last Quarter
Jan 30
New
Feb 6
First Quarter

Hourly Weather History & Observations

Time (CST) Temp. Windchill Dew Point Humidity Pressure Visibility Wind Dir Wind Speed Gust Speed Precip Events Conditions
12:15 AM 23.0 °F 13.1 °F 21.2 °F 93% 30.03 in - SSE 9.2 mph - N/A   Overcast
12:35 AM 23.0 °F 14.7 °F 21.2 °F 93% 30.02 in - SSE 6.9 mph - N/A   Overcast
12:55 AM 24.8 °F 16.9 °F 23.0 °F 93% 30.02 in - SSE 6.9 mph - N/A   Overcast
1:15 AM 24.8 °F 16.1 °F 23.0 °F 93% 30.01 in - SSE 8.1 mph - N/A   Overcast
1:35 AM 24.8 °F 16.9 °F 23.0 °F 93% 30.01 in - SSE 6.9 mph - N/A   Overcast
1:55 AM 26.6 °F 19.1 °F 23.0 °F 86% 30.01 in - SSE 6.9 mph - N/A   Overcast
2:15 AM 26.6 °F 20.0 °F 23.0 °F 86% 30.01 in - SSE 5.8 mph - N/A   Overcast
2:35 AM 26.6 °F 20.0 °F 23.0 °F 86% 30.01 in - SSE 5.8 mph - N/A   Overcast
2:55 AM 26.6 °F 22.6 °F 23.0 °F 86% 30.01 in - SSE 3.5 mph - N/A   Overcast
3:10 AM 26.6 °F 21.2 °F 24.8 °F 93% 30.00 in - South 4.6 mph - N/A   Overcast
3:35 AM 26.6 °F 20.0 °F 24.8 °F 93% 29.99 in - SSE 5.8 mph - N/A   Overcast
3:55 AM 26.6 °F 20.0 °F 24.8 °F 93% 29.99 in - South 5.8 mph - N/A   Overcast
4:15 AM 28.4 °F 23.3 °F 26.6 °F 93% 29.98 in - South 4.6 mph - N/A   Overcast
4:35 AM 28.4 °F 22.2 °F 26.6 °F 93% 29.98 in - South 5.8 mph - N/A   Overcast
4:55 AM 28.4 °F 23.3 °F 26.6 °F 93% 29.97 in - SSE 4.6 mph - N/A   Overcast
5:15 AM 28.4 °F 23.3 °F 26.6 °F 93% 29.97 in - SSE 4.6 mph - N/A   Overcast
5:35 AM 28.4 °F 23.3 °F 26.6 °F 93% 29.96 in - SSE 4.6 mph - N/A   Overcast
5:55 AM 28.4 °F 23.3 °F 26.6 °F 93% 29.96 in - SSE 4.6 mph - N/A   Overcast
6:15 AM 28.4 °F 24.6 °F 26.6 °F 93% 29.95 in - SSE 3.5 mph - N/A   Overcast
6:35 AM 28.4 °F 24.6 °F 26.6 °F 93% 29.95 in - SSE 3.5 mph - N/A   Overcast
6:55 AM 28.4 °F 23.3 °F 26.6 °F 93% 29.94 in - SSE 4.6 mph - N/A   Overcast
7:15 AM 28.4 °F 23.3 °F 28.4 °F 100% 29.93 in - SSE 4.6 mph - N/A   Overcast
7:35 AM 30.2 °F 24.3 °F 28.4 °F 93% 29.92 in - SE 5.8 mph - N/A   Overcast
7:55 AM 30.2 °F 24.3 °F 28.4 °F 93% 29.92 in - SSE 5.8 mph - N/A   Overcast
8:15 AM 30.2 °F 23.4 °F 28.4 °F 93% 29.92 in - SSE 6.9 mph - N/A   Overcast
8:35 AM 30.2 °F 23.4 °F 28.4 °F 93% 29.91 in - SE 6.9 mph - N/A   Overcast
8:55 AM 30.2 °F 23.4 °F 28.4 °F 93% 29.89 in - SE 6.9 mph - N/A   Overcast
9:15 AM 30.2 °F 22.6 °F 30.2 °F 100% 29.88 in - SE 8.1 mph - N/A   Overcast
9:35 AM 32.0 °F 24.2 °F 30.2 °F 93% 29.88 in - SE 9.2 mph - N/A   Overcast
9:55 AM 32.0 °F 25.6 °F 30.2 °F 93% 29.87 in - SE 6.9 mph - N/A   Overcast
10:15 AM 32.0 °F 25.6 °F 30.2 °F 93% 29.86 in - SE 6.9 mph - N/A   Overcast
10:35 AM 32.0 °F 24.8 °F 30.2 °F 93% 29.85 in - SE 8.1 mph - N/A   Overcast
10:55 AM 32.0 °F 24.8 °F 30.2 °F 93% 29.82 in - SE 8.1 mph - N/A   Overcast
11:15 AM 32.0 °F 23.6 °F 30.2 °F 93% 29.81 in - SE 10.4 mph - N/A   Overcast
11:35 AM 32.0 °F 24.8 °F 32.0 °F 100% 29.79 in - SE 8.1 mph - N/A   Overcast
11:55 AM 32.0 °F 24.8 °F 32.0 °F 100% 29.76 in - SE 8.1 mph - N/A   Overcast
12:15 PM 32.0 °F 24.2 °F 32.0 °F 100% 29.75 in - SE 9.2 mph - N/A   Overcast
12:35 PM 32.0 °F 25.6 °F 32.0 °F 100% 29.73 in - SE 6.9 mph - N/A   Overcast
12:55 PM 32.0 °F 25.6 °F 32.0 °F 100% 29.71 in - SE 6.9 mph - N/A   Overcast
1:15 PM 32.0 °F 24.8 °F 32.0 °F 100% 29.69 in - ESE 8.1 mph - N/A   Overcast
1:35 PM 32.0 °F 24.8 °F 32.0 °F 100% 29.68 in - SE 8.1 mph - N/A   Overcast
1:55 PM 32.0 °F 24.8 °F 32.0 °F 100% 29.66 in - ESE 8.1 mph - N/A   Unknown
2:15 PM 33.8 °F 27.0 °F 32.0 °F 93% 29.65 in - SE 8.1 mph - N/A   Overcast
2:35 PM 33.8 °F 26.4 °F 32.0 °F 93% 29.62 in - ESE 9.2 mph - N/A   Overcast
2:55 PM 33.8 °F 25.3 °F 32.0 °F 93% 29.61 in - ESE 11.5 mph - N/A   Overcast
3:15 PM 33.8 °F 25.8 °F 32.0 °F 93% 29.61 in - SE 10.4 mph - N/A   Overcast
3:35 PM 33.8 °F 25.8 °F 32.0 °F 93% 29.61 in - SE 10.4 mph - 0.01 in   Overcast
3:55 PM 33.8 °F 27.7 °F 32.0 °F 93% 29.60 in - SE 6.9 mph - 0.02 in   Overcast
4:15 PM 33.8 °F 27.0 °F 32.0 °F 93% 29.57 in - SE 8.1 mph - 0.01 in   Overcast
4:35 PM 33.8 °F 27.0 °F 32.0 °F 93% 29.55 in - SE 8.1 mph - 0.01 in   Overcast
4:55 PM 33.8 °F 27.7 °F 32.0 °F 93% 29.55 in - SE 6.9 mph - 0.01 in   Overcast
5:15 PM 33.8 °F 27.7 °F 32.0 °F 93% 29.55 in - SE 6.9 mph - N/A   Overcast
5:35 PM 33.8 °F 27.7 °F 33.8 °F 100% 29.54 in - SE 6.9 mph - N/A   Overcast
5:55 PM 33.8 °F 28.6 °F 33.8 °F 100% 29.53 in - SE 5.8 mph - N/A   Overcast
6:15 PM 33.8 °F 27.7 °F 33.8 °F 100% 29.52 in - SE 6.9 mph - N/A   Overcast
6:35 PM 33.8 °F 27.7 °F 33.8 °F 100% 29.52 in - SE 6.9 mph - 0.02 in   Overcast
6:55 PM 35.6 °F 30.7 °F 33.8 °F 93% 29.52 in - SSE 5.8 mph - 0.02 in   Overcast
7:15 PM 35.6 °F 29.9 °F 33.8 °F 93% 29.50 in - SSE 6.9 mph - N/A   Overcast
7:35 PM 35.6 °F 29.9 °F 33.8 °F 93% 29.50 in - SSE 6.9 mph - N/A   Overcast
7:55 PM 35.6 °F 30.7 °F 33.8 °F 93% 29.49 in - SSE 5.8 mph - N/A   Overcast
8:15 PM 35.6 °F 30.7 °F 33.8 °F 93% 29.48 in - SSE 5.8 mph - N/A   Overcast
8:35 PM 35.6 °F 30.7 °F 33.8 °F 93% 29.48 in - SSE 5.8 mph - N/A   Overcast
8:55 PM 35.6 °F 31.7 °F 33.8 °F 93% 29.48 in - South 4.6 mph - N/A   Overcast
9:15 PM 33.8 °F - 33.8 °F 100% 29.47 in - Calm Calm - N/A   Overcast
9:35 PM 35.6 °F 32.8 °F 33.8 °F 93% 29.46 in - SSW 3.5 mph - N/A   Overcast
9:55 PM 35.6 °F 31.7 °F 33.8 °F 93% 29.46 in - South 4.6 mph - N/A   Overcast
10:15 PM 35.6 °F 31.7 °F 33.8 °F 93% 29.46 in - SSW 4.6 mph - N/A   Overcast
10:35 PM 35.6 °F 30.7 °F 33.8 °F 93% 29.45 in - SSW 5.8 mph - N/A   Overcast
10:55 PM 35.6 °F 30.7 °F 33.8 °F 93% 29.45 in - South 5.8 mph - N/A   Overcast
11:15 PM 35.6 °F 31.7 °F 33.8 °F 93% 29.45 in - SW 4.6 mph - N/A   Overcast
11:35 PM 35.6 °F 31.7 °F 33.8 °F 93% 29.44 in - SW 4.6 mph - N/A   Overcast
11:55 PM 35.6 °F 30.7 °F 33.8 °F 93% 29.44 in - SW 5.8 mph - N/A   Overcast